Tracking 29892 objects as of 21-Nov-2024
HD Live streaming from Space Station
objects crossing your sky now

ARIANE 1 DEB

Track ARIANE 1 DEB now!
10-day predictions


NORAD ID: 48346
Int'l Code: 1983-105C
Perigee: 537.0 km
Apogee: 20,392.9 km
Inclination: 8.6 °
Period: 362.3 minutes
Semi major axis: 16835 km
RCS: Unknown
Launch date: October 19, 1983
Source: European Space Agency (ESA)
Launch site: FRENCH GUIANA (FRGUI)

Note: This is SATELLITE DEBRIS
Your satellite tracking list
Your tracking list is empty




NASA's NSSDC Master Catalog

Two Line Element Set (TLE):
1 48346U 83105C   24304.33160878  .00001663  00000-0  59047-2 0  9994
2 48346   8.6437 312.0082 5896854 277.5837  64.5497  3.97416132158550
Source of the keplerian elements: AFSPC